Henderson, KY

4:01 AM CDT on September 15, 2019 (GMT -0500)
Henderson City-County

Weather History for KEHR - May, 2019

Change the Weather History Date:

Saturday, May 18, 2019

  Actual Average Record
Temperature  
Mean Temperature 78 °F -  
Max Temperature 88 °F 79 °F 92 °F (1962)
Min Temperature 68 °F 57 °F 37 °F (2014)
Cooling Degree Days 13    
Growing Degree Days 28 (Base 50)    
Moisture  
Dew Point 62 °F    
Average Humidity 59    
Maximum Humidity 84    
Minimum Humidity 40    
Precipitation  
Precipitation 0.00 in - - ()
Sea Level Pressure  
Sea Level Pressure 29.87 in    
Wind  
Wind Speed 12 mph (SSW)    
Max Wind Speed 25 mph    
Max Gust Speed 31 mph    
Visibility 10 miles    
Events      
Averages and records for this station are not official NWS values.
T = Trace of Precipitation, MM = Missing Value Source: NWS Daily Summary

Daily Weather History Graph

Daily Weather History Graph

Search for Another Location

Airport or City:

Astronomy

May. 18, 2019 Rise Set
Actual Time 5:38 AM CDT 7:56 PM CDT
Civil Twilight 5:08 AM CDT 8:25 PM CDT
Nautical Twilight 4:32 AM CDT 9:02 PM CDT
Astronomical Twilight 3:52 AM CDT 9:42 PM CDT
Moon 7:52 PM CDT (5/18) 5:43 AM CDT (5/18)
Length of Visible Light 15h 17m
Length of Day
14h 17m
Full, 100% of the Moon is Illuminated
May 18
Full
May 18
Full
May 26
Last Quarter
Jun 3
New
Jun 10
First Quarter

Hourly Weather History & Observations

Time (CDT) Temp. Heat Index Dew Point Humidity Pressure Visibility Wind Dir Wind Speed Gust Speed Precip Events Conditions
12:56 AM 72.0 °F - 64.0 °F 76% 29.90 in 10.0 mi South 8.1 mph - N/A   Clear
1:56 AM 72.0 °F - 63.0 °F 73% 29.89 in 10.0 mi South 9.2 mph - N/A   Clear
2:56 AM 70.0 °F - 63.0 °F 78% 29.89 in 10.0 mi South 8.1 mph - N/A   Clear
3:56 AM 68.0 °F - 63.0 °F 84% 29.90 in 10.0 mi South 5.8 mph - N/A   Clear
4:56 AM 68.0 °F - 63.0 °F 84% 29.90 in 10.0 mi SSW 6.9 mph - N/A   Clear
5:56 AM 68.0 °F - 63.0 °F 84% 29.92 in 10.0 mi South 8.1 mph - N/A   Clear
6:56 AM 71.1 °F - 64.0 °F 78% 29.94 in 10.0 mi South 8.1 mph - N/A   Clear
7:56 AM 75.0 °F - 64.9 °F 71% 29.94 in 10.0 mi SSW 11.5 mph - N/A   Clear
8:56 AM 79.0 °F - 64.9 °F 62% 29.94 in 10.0 mi SSW 11.5 mph - N/A   Clear
9:56 AM 82.0 °F 83.4 °F 64.0 °F 54% 29.92 in 10.0 mi SW 13.8 mph - N/A   Clear
10:56 AM 84.0 °F 85.4 °F 64.0 °F 51% 29.91 in 10.0 mi SSW 12.7 mph 21.9 mph N/A   Clear
11:56 AM 84.9 °F 85.9 °F 63.0 °F 48% 29.90 in 10.0 mi South 21.9 mph 26.5 mph N/A   Clear
12:56 PM 87.1 °F 87.5 °F 62.1 °F 43% 29.88 in 10.0 mi South 25.3 mph 31.1 mph N/A   Partly Cloudy
1:56 PM 87.1 °F 87.0 °F 61.0 °F 41% 29.87 in 10.0 mi SSW 19.6 mph 27.6 mph N/A   Clear
2:56 PM 87.1 °F 87.0 °F 61.0 °F 41% 29.84 in 10.0 mi SSW 19.6 mph 28.8 mph N/A   Clear
3:56 PM 88.0 °F 87.9 °F 61.0 °F 40% 29.83 in 10.0 mi South 19.6 mph 27.6 mph N/A   Clear
4:56 PM 87.1 °F 86.7 °F 60.1 °F 40% 29.83 in 10.0 mi SSW 20.7 mph 26.5 mph N/A   Clear
5:56 PM 84.9 °F 84.8 °F 60.1 °F 43% 29.82 in 10.0 mi SSW 15.0 mph 23.0 mph N/A   Clear
6:56 PM 84.0 °F 83.8 °F 59.0 °F 43% 29.81 in 10.0 mi SSW 17.3 mph 21.9 mph N/A   Clear
7:56 PM 80.1 °F 80.7 °F 59.0 °F 48% 29.81 in 10.0 mi South 11.5 mph - N/A   Clear
8:56 PM 78.1 °F - 59.0 °F 52% 29.81 in 10.0 mi South 9.2 mph - N/A   Clear
9:56 PM 75.9 °F - 60.1 °F 58% 29.81 in 10.0 mi South 11.5 mph - N/A   Clear
10:56 PM 75.0 °F - 60.1 °F 60% 29.81 in 10.0 mi South 11.5 mph - N/A   Clear
11:56 PM 75.0 °F - 61.0 °F 62% 29.81 in 10.0 mi South 12.7 mph - N/A   Clear